« Back
NWS Peachtree City, Ga » Text Product » GA Regional Weather Roundup


Printer-friendly Version
Current Version              Previous Versions:   1  2  3  4  5  6  7  8  9  

Regional Weather Roundup

751
ASUS42 KFFC 292303
RWRGA
WEATHER ROUNDUP FOR GEORGIA
NATIONAL WEATHER SERVICE PEACHTREE CITY GA
700 PM EDT SUN MAY 29 2016

NOTE: "FAIR" INDICATES FEW OR NO CLOUDS BELOW 12,000 FEET WITH NO
SIGNIFICANT WEATHER AND/OR OBSTRUCTIONS TO VISIBILITY.

* = USE WITH CAUTION. THE STATIONS MARKED WITH AN ASTERISK MAY NOT
REPORT WEATHER SUCH AS PRECIPITATION, FOG, OR THUNDER AND ARE NOT
QUALITY CONTROLLED BY NWS.

THE REMARK "TC" DENOTES TEMPERATURE READING IN DEGREES CELSIUS.

GAZ001>058-300000-
NORTH GEORGIA

CITY           SKY/WX    TMP DP  RH WIND       PRES   REMARKS
ATLANTA        MOSUNNY   88  58  36 NW12      30.02F
ATHENS         MOSUNNY   77  61  57 VRB6      30.05F
CHAMBLEE       SUNNY     88  57  34 NW8       30.02F
ROME           MOSUNNY   88  60  38 W10       30.01F
WEST ATLANTA   SUNNY     86  60  41 NW7       30.02F
GAINESVILLE    CLOUDY    76  63  64 SE6       30.08S
CARTERSVILLE   MOSUNNY   85  61  44 CALM      30.03S


CITY           SKY/WX    TMP DP  RH WIND       PRES   REMARKS
DALTON*        MOSUNNY   88  59  37 NW7       30.02F
LAWRENCEVILLE* PTSUNNY   75  70  83 CALM      30.06S
KENNESAW*      MOSUNNY   86  55  35 NW6       29.98S
CANTON*        MOSUNNY   86  45  23 NW7       30.05S
BLAIRSVILLE*     N/A    N/A N/A N/A MISG      30.09S
$$

GAZ059>098-102>109-300000-
CENTRAL GEORGIA

CITY           SKY/WX    TMP DP  RH WIND       PRES   REMARKS
AUGUSTA-BUSH   CLOUDY    77  61  57 N15       29.97S
AUGUSTA-DANIEL CLOUDY    77  61  57 NW8       29.99R
COLUMBUS       SUNNY     87  61  41 W8        30.00F
MACON          MOSUNNY   83  63  50 E12       30.02F


CITY           SKY/WX    TMP DP  RH WIND       PRES   REMARKS
LAGRANGE*      MOSUNNY   90  65  44 NW10      30.02F HX  92
SYLVANIA*      DRIZZLE   69  67  92 NW7       29.99S
MILLEDGEVILLE* MOSUNNY   77  61  57 CALM      30.03F
$$

GAZ099>101-110>166-300000-
SOUTH GEORGIA

CITY           SKY/WX    TMP DP  RH WIND       PRES   REMARKS
SAVANNAH       RAIN      69  64  84 NW14G25   29.97S
VALDOSTA       MOSUNNY   88  60  38 VRB3      30.00F
ALMA           SUNNY     85  58  39 NW10      30.00F
ST SIMONS      SUNNY     83  59  44 NW13G18   29.98F
ALBANY         SUNNY     90  58  33 NW7       30.01F
HUNTER AFB     LGT RAIN  68  68 100 W12       29.94F
BRUNSWICK      MOSUNNY   88  61  40 NW12      29.99F


CITY           SKY/WX    TMP DP  RH WIND       PRES   REMARKS
BAINBRIDGE*    SUNNY     91  61  35 CALM      30.00F HX  91
MOULTRIE*      MOSUNNY   88  57  35 W5        30.01F
VIDALIA*       CLOUDY    81  59  47 NW8G16    30.01F
WAYCROSS*      SUNNY     85  62  45 N8        30.00S
DOUGLAS*       SUNNY     86  59  39 N6        30.03S
$$




USA.gov is the U.S. government's official web portal to all federal, state and local government web resources and services.